Regional Weather Roundup
Issued by NWS Green Bay, WI

Home | Current Version | Previous Version | Text Only | Print | Product List | Glossary On
Versions: 1 2 3 4 5 6 7 8 9 10 11 12 13 14 15 16 17 18 19 20 21 22 23 24 25 26 27 28 29 30 31 32 33 34 35 36 37 38 39 40 41 42 43 44 45 46 47 48 49 50
000
ASUS43 KGRB 272159
RWRGRB

NORTH-CENTRAL AND NORTHEAST WISCONSIN REGIONAL WEATHER ROUNDUP
NATIONAL WEATHER SERVICE GREEN BAY WI
500 PM CDT FRI MAR 27 2015

WIZ005-009-010>012-018-019-272300-
NORTH CENTRAL WISCONSIN

CITY           SKY/WX    TMP DP  RH WIND       PRES   REMARKS
IRONWOOD       SUNNY     25  10  54 N6        30.14F
MANITOWISH WTR NOT AVBL
ARBOR VITAE    NOT AVBL
EAGLE RIVER    NOT AVBL
LAND O LAKES   NOT AVBL
RHINELANDER    SUNNY     29   0  28 CALM      30.11S
PHILLIPS       NOT AVBL
ANTIGO         NOT AVBL
TOMAHAWK       NOT AVBL
MERRILL        NOT AVBL
$$

WIZ013-073-272300-
NORTHEAST WISCONSIN

CITY           SKY/WX    TMP DP  RH WIND       PRES   REMARKS
IRON MOUNTAIN  SUNNY     28  -1  28 VRB3      30.13S
MARINETTE      SUNNY     25   9  50 SE9       30.18F
$$

WIZ017-030-035>037-045-272300-
CENTRAL WISCONSIN

CITY           SKY/WX    TMP DP  RH WIND       PRES   REMARKS
MEDFORD        NOT AVBL
WAUSAU         SUNNY     32   2  27 VRB7      30.12F
MOSINEE        SUNNY     30   3  31 CALM      30.14F
MARSHFIELD     SUNNY     31   5  33 CALM      30.14F
WISC RAPIDS    SUNNY     32   5  32 CALM      30.17F
STEVENS POINT  NOT AVBL
WAUPACA        NOT AVBL
SHAWANO        NOT AVBL
CLINTONVILLE   NOT AVBL
$$

WIZ038-039-048-051-272300-
FOX VALLEY

CITY           SKY/WX    TMP DP  RH WIND       PRES   REMARKS
NWS GREEN BAY  SUNNY     29   7  39 CALM      30.18S
APPLETON       SUNNY     30   3  31 N6        30.16F
OSHKOSH        SUNNY     29   7  39 E6        30.17S
FOND DU LAC    SUNNY     30   4  33 NE10      30.17F
$$

WIZ022-050-052-272300-
EAST CENTRAL WISCONSIN

CITY           SKY/WX    TMP DP  RH WIND       PRES   REMARKS
STURGEON BAY   SUNNY     25   3  39 N8        30.20S
MANITOWOC      NOT AVBL
SHEBOYGAN      SUNNY     27  11  51 NE14      30.17S
$$

LMZ563-521-522-541>543-272300-
LAKESHORE

STATION/POSITION TIME  TEMP    WIND        PRES    VSBY  WAVE
                       AIR SEA DIR/SP/G                  HT/PER
                 (UTC) (F)     (DEG/KT/KT) (MB)    (MI)  (FT/S)
SHEBOYGAN LKSHOR 2100   23      20/ 17/ 19 1023.4F
KEWAUNEE LKSHORE 2100   25      30/  9/ 14 1021.4F
NORTHPORT PIER   2100   22     360/ 13/ 16 1022.4F
STURGEON BAY CG  2100   26      30/  7     1023.2      6   2
CHAMBERS ISLAND  2100   22      30/ 11/ 15 1022.4F
MENOMINEE LKSHOR 2100   22      50/  9     1022.9F
$$


USA.gov is the U.S. government's official web portal to all federal, state and local government web resources and services.